Stations météo

Publicité
St-Girons, France (7627): Température de l'air & dewpoint: 28.05.2020 02:00:00 - 03.06.2020 02:00:00 (CEST)St-Girons, France (7627): Température de l'air 5cm: 28.05.2020 02:00:00 - 03.06.2020 02:00:00 (CEST)St-Girons, France (7627): Température de l'air -20cm & Température de l'air -100cm: 28.05.2020 02:00:00 - 03.06.2020 02:00:00 (CEST)St-Girons, France (7627): Vitesse du vent & gusts: 28.05.2020 02:00:00 - 03.06.2020 02:00:00 (CEST)St-Girons, France (7627): Direction du vent: 28.05.2020 02:00:00 - 03.06.2020 02:00:00 (CEST)St-Girons, France (7627): reduced air pressure: 28.05.2020 02:00:00 - 03.06.2020 02:00:00 (CEST)St-Girons, France (7627): visibility: 28.05.2020 02:00:00 - 03.06.2020 02:00:00 (CEST)St-Girons, France (7627): Ensoleillement: 28.05.2020 02:00:00 - 03.06.2020 02:00:00 (CEST)St-Girons, France (7627): Quantités de précipitations: 28.05.2020 02:00:00 - 03.06.2020 02:00:00 (CEST)
Date & Time tt [°C] td [°C] tt 5cm [°C] tt -20cm [°C] tt -100cm [°C] ff [km/h] ff [knt] fx [km/h] fx [knt] dd ppp [hPa] vv [km] sd [min] rr [mm]
03.06.2020 02:00:00 13,4 12,1 10,7 19,8 16,8 0 0 4 2 N 1013,5 20 0 0,0
03.06.2020 01:00:00 14,1 12,5 11,6 19,8 16,8 3 1 5 3 W 1013,7 20 0 0,0
03.06.2020 00:00:00 15,0 13,2 12,2 19,8 16,8 2 1 4 2 WSW 1013,8 20 0 0,0
02.06.2020 23:00:00 17,0 14,3 14,1 19,8 16,8 0 0 4 2 N 1013,8 20 0 0,0
02.06.2020 22:00:00 19,3 14,8 15,9 19,8 16,8 2 1 5 3 ESE 1013,1 20 0 0,0
02.06.2020 21:00:00 21,9 15,7 21,3 19,6 16,8 2 1 6 3 WSW 1012,3 20 30 0,0
02.06.2020 20:00:00 24,4 13,3 25,9 19,6 16,8 5 3 13 7 WNW 1012,0 20 55 0,0
02.06.2020 19:00:00 25,6 11,7 30,1 19,4 16,8 10 6 17 9 NNW 1012,0 20 57 0,0
02.06.2020 18:00:00 25,9 12,7 35,2 19,3 16,8 8 5 18 10 NW 1012,2 20 55 0,0
02.06.2020 17:00:00 26,1 13,6 34,0 19,1 16,7 8 4 21 12 N 1012,6 20 53 0,0
02.06.2020 16:00:00 26,0 14,8 31,2 19,1 16,7 9 5 16 9 NNW 1013,1 20 54 0,0
02.06.2020 15:00:00 24,5 14,0 28,1 19,0 16,7 7 4 18 10 NW 1013,7 20 29 0,0
02.06.2020 14:00:00 25,0 16,4 35,6 18,9 16,7 6 3 17 9 N 1014,2 20 47 0,0
02.06.2020 13:00:00 23,9 16,2 35,1 18,9 16,7 8 4 17 9 NNW 1014,8 20 60 0,0
02.06.2020 12:00:00 23,3 15,1 29,0 18,9 16,7 4 2 13 7 NW 1015,3 20 60 0,0
02.06.2020 11:00:00 22,2 15,1 22,2 18,9 16,7 5 3 11 6 NNE 1015,7 20 47 0,0
02.06.2020 10:00:00 20,7 15,5 19,2 19,0 16,7 3 1 8 4 NNW 1016,1 20 49 0,0
02.06.2020 09:00:00 18,2 14,7 17,2 19,0 16,7 0 0 8 4 N 1016,5 20 37 0,0
02.06.2020 08:00:00 16,3 14,8 12,9 19,1 16,7 2 1 19 10 N 1016,4 20 27 0,0
02.06.2020 07:00:00 14,2 13,4 11,9 19,1 16,7 11 6 18 10 S 1016,7 20 0 0,0
02.06.2020 06:00:00 13,5 12,7 12,4 19,2 16,7 3 1 6 4 WSW 1016,1 13 0 0,0
02.06.2020 05:00:00 14,7 13,4 12,2 19,2 16,7 3 2 32 18 N 1015,9 20 0 0,0
02.06.2020 04:00:00 15,6 13,4 14,1 19,3 16,7 20 11 29 16 SSE 1015,6 20 0 0,0
02.06.2020 03:00:00 16,2 13,7 15,0 19,3 16,7 8 4 39 21 ENE 1015,7 12 0 0,2
02.06.2020 02:00:00 15,3 13,8 15,1 19,3 16,7 8 4 23 13 SSW 1017,1 20 0 0,2
02.06.2020 01:00:00 16,6 12,9 15,5 19,3 16,7 13 7 27 15 SSE 1017,0 20 0 0,2
02.06.2020 00:00:00 16,7 15,1 16,1 19,3 16,7 19 11 28 15 S 1017,7 20 0 2,2
01.06.2020 23:00:00 17,7 16,2 17,1 19,4 16,7 5 3 16 9 NE 1017,5 14 0 0,4
01.06.2020 22:00:00 18,4 15,8 17,5 19,3 16,6 9 5 22 12 SE 1015,3 20 0 0,0
01.06.2020 21:00:00 19,1 16,1 18,5 19,3 16,7 8 4 23 12 SSE 1014,6 20 0 0,0
01.06.2020 20:00:00 19,7 16,3 20,4 19,3 16,6 16 8 25 14 SSE 1014,3 20 5 0,0
01.06.2020 19:00:00 20,1 16,3 19,0 19,3 16,7 15 8 27 14 SSE 1014,5 20 0 0,2
01.06.2020 18:00:00 19,3 15,8 19,3 19,2 16,6 15 8 24 13 S 1014,5 20 0 0,0
01.06.2020 17:00:00 21,8 13,7 22,7 19,1 16,6 5 3 13 7 ESE 1014,4 20 16 0,0
01.06.2020 16:00:00 22,9 16,7 23,1 19,1 16,6 8 4 20 11 ESE 1014,1 20 10 0,0
01.06.2020 15:00:00 22,8 16,1 26,8 19,0 16,6 4 2 10 5 NW 1014,1 20 0 0,0
01.06.2020 14:00:00 22,7 16,5 27,9 19,0 16,7 8 4 21 11 N 1014,0 20 2 0,0
01.06.2020 13:00:00 24,1 15,6 33,0 18,9 16,6 8 5 16 8 N 1013,2 20 43 0,0
01.06.2020 12:00:00 22,9 15,5 25,3 19,0 16,6 6 4 18 10 NNW 1013,3 20 12 0,0
01.06.2020 11:00:00 22,6 14,4 24,6 19,0 16,6 3 1 14 8 SSW 1013,2 20 28 0,0
01.06.2020 10:00:00 21,7 14,1 21,6 19,1 16,6 6 3 14 8 ESE 1013,2 20 30 0,0
01.06.2020 09:00:00 18,3 13,6 17,0 19,1 16,6 7 4 14 7 SE 1013,9 20 33 0,0
01.06.2020 08:00:00 15,9 13,9 11,5 19,2 16,6 5 3 10 6 SE 1014,1 20 13 0,0
01.06.2020 07:00:00 13,4 13,1 11,1 19,3 16,6 0 0 7 4 N 1014,2 9 0 0,0
01.06.2020 06:00:00 13,8 13,2 11,7 19,4 16,6 3 2 6 3 SE 1013,3 17 0 0,0
01.06.2020 05:00:00 14,3 13,7 12,5 19,4 16,6 0 0 5 3 N 1013,3 13 0 0,0
01.06.2020 04:00:00 14,9 14,4 12,5 19,5 16,5 0 0 5 3 N 1013,2 20 0 0,0
01.06.2020 03:00:00 14,7 14,1 12,3 19,5 16,5 4 2 5 3 W 1013,1 17 0 0,0
01.06.2020 02:00:00 16,2 14,4 13,5 19,5 16,5 0 0 10 6 N 1013,0 20 0 0,0
01.06.2020 01:00:00 17,4 15,0 14,7 19,5 16,5 4 2 8 5 ESE 1012,8 20 0 0,0
01.06.2020 00:00:00 18,2 15,6 16,5 19,5 16,5 4 2 10 6 SE 1012,7 20 0 0,0
31.05.2020 23:00:00 19,3 15,8 17,7 19,5 16,5 0 0 12 6 N 1012,5 20 0 0,0
31.05.2020 22:00:00 20,1 15,9 17,8 19,5 16,5 2 1 12 6 SE 1012,2 14 0 0,0
31.05.2020 21:00:00 21,6 15,9 20,0 19,4 16,5 6 3 15 8 ENE 1011,6 20 0 0,0
31.05.2020 20:00:00 22,9 16,2 22,4 19,3 16,5 2 1 14 7 ESE 1010,6 20 0 0,0
31.05.2020 19:00:00 23,9 15,1 24,8 19,2 16,5 10 5 20 11 NE 1009,6 20 15 0,0
31.05.2020 18:00:00 26,0 15,1 31,0 19,1 16,5 9 5 24 13 E 1009,5 20 55 0,0
31.05.2020 17:00:00 26,7 16,0 36,1 18,9 16,5 9 5 19 11 E 1009,5 20 60 0,0
31.05.2020 16:00:00 26,2 16,2 32,3 18,8 16,5 12 6 24 13 ENE 1009,6 20 52 0,0
31.05.2020 15:00:00 25,7 15,4 34,8 18,8 16,5 10 5 24 13 E 1010,1 20 43 0,0
31.05.2020 14:00:00 26,1 17,2 41,1 18,7 16,5 8 4 18 10 NNE 1010,2 20 60 0,0
31.05.2020 13:00:00 25,3 17,0 37,4 18,7 16,5 5 3 13 7 SE 1010,6 20 60 0,0
31.05.2020 12:00:00 24,7 16,4 32,9 18,7 16,5 3 2 10 6 SE 1011,0 20 60 0,0
31.05.2020 11:00:00 22,7 15,5 24,9 18,7 16,5 4 2 10 6 E 1011,6 20 60 0,0
31.05.2020 10:00:00 20,6 14,5 19,8 18,8 16,5 6 4 14 8 E 1012,0 20 60 0,0
31.05.2020 09:00:00 18,9 14,2 16,0 18,9 16,5 5 3 17 9 E 1012,3 20 60 0,0
31.05.2020 08:00:00 17,1 13,8 10,9 18,9 16,5 6 3 18 10 ESE 1012,3 20 51 0,0
31.05.2020 07:00:00 13,5 13,3 9,8 19,0 16,5 4 2 12 7 SE 1012,8 20 0 0,0
31.05.2020 06:00:00 13,0 12,4 10,0 19,1 16,4 5 3 10 5 SSE 1012,8 14 0 0,0
31.05.2020 05:00:00 12,8 11,7 10,5 19,1 16,4 0 0 5 3 N 1012,8 17 0 0,0
31.05.2020 04:00:00 14,2 12,8 11,4 19,2 16,5 2 1 12 6 SSE 1012,6 20 0 0,0
31.05.2020 03:00:00 16,4 13,9 11,8 19,2 16,4 11 6 21 11 SE 1012,8 20 0 0,0
31.05.2020 02:00:00 16,4 13,5 14,0 19,2 16,4 2 1 21 12 SSE 1013,2 20 0 0,0
31.05.2020 01:00:00 18,0 14,3 14,8 19,3 16,4 14 7 22 12 SE 1013,3 20 0 0,0
31.05.2020 00:00:00 17,9 14,4 13,6 19,3 16,4 9 5 20 11 ESE 1013,4 20 0 0,0
30.05.2020 23:00:00 18,0 14,5 13,5 19,3 16,4 8 4 11 6 SSE 1013,4 20 0 0,0
30.05.2020 22:00:00 19,5 13,9 15,0 19,2 16,4 7 4 11 6 SE 1012,8 19 0 0,0
30.05.2020 21:00:00 21,9 13,3 18,3 19,2 16,4 3 2 13 7 S 1012,3 20 52 0,0
30.05.2020 20:00:00 23,3 14,0 21,6 19,1 16,4 8 4 19 10 E 1011,8 20 24 0,0
30.05.2020 19:00:00 23,6 14,3 23,7 19,0 16,4 9 5 23 12 ENE 1011,8 20 3 0,0
30.05.2020 18:00:00 24,8 14,6 26,6 18,9 16,4 9 5 19 11 ENE 1011,6 20 17 0,0
30.05.2020 17:00:00 26,4 13,2 34,3 18,7 16,4 8 4 19 10 NE 1011,3 20 47 0,0
30.05.2020 16:00:00 26,4 13,5 33,4 18,6 16,4 9 5 19 11 NE 1011,6 20 49 0,0
30.05.2020 15:00:00 26,4 13,5 33,1 18,5 16,4 6 3 20 11 NNE 1012,0 20 51 0,0
30.05.2020 14:00:00 25,8 14,3 35,5 18,5 16,4 5 3 18 10 N 1012,5 20 52 0,0
30.05.2020 13:00:00 24,6 13,8 39,2 18,5 16,4 5 3 16 9 NW 1013,2 20 60 0,0
30.05.2020 12:00:00 24,1 15,0 32,2 18,5 16,4 7 4 14 8 N 1013,8 20 60 0,0
30.05.2020 11:00:00 22,1 12,6 23,9 18,6 16,3 6 3 15 8 N 1014,2 20 60 0,0
30.05.2020 10:00:00 21,8 14,4 18,6 18,6 16,3 2 1 7 4 ENE 1014,5 20 60 0,0
30.05.2020 09:00:00 18,3 13,2 14,5 18,7 16,4 4 2 8 5 SE 1015,1 20 60 0,0
30.05.2020 08:00:00 14,7 12,7 9,7 18,8 16,3 0 0 4 2 N 1015,8 20 50 0,0
30.05.2020 07:00:00 11,3 10,7 9,2 18,9 16,3 3 1 9 5 WNW 1016,1 20 0 0,0
30.05.2020 06:00:00 11,9 11,0 9,1 18,9 16,3 5 3 11 6 SSE 1015,8 18 0 0,0
30.05.2020 05:00:00 12,6 10,3 10,1 19,0 16,4 0 0 20 11 N 1015,7 20 0 0,0
30.05.2020 04:00:00 14,9 11,5 11,6 19,0 16,3 10 6 22 12 SE 1015,3 20 0 0,0
30.05.2020 03:00:00 14,8 10,8 12,3 19,0 16,3 9 5 24 13 SE 1015,5 20 0 0,0
30.05.2020 02:00:00 16,2 12,2 12,8 19,1 16,3 9 5 22 12 ESE 1015,4 20 0 0,0
30.05.2020 01:00:00 16,9 12,4 13,1 19,1 16,3 9 5 21 11 ESE 1015,5 20 0 0,0
30.05.2020 00:00:00 17,5 12,6 12,8 19,1 16,3 9 5 17 9 SE 1015,5 20 0 0,0
29.05.2020 23:00:00 19,1 12,8 13,5 19,1 16,3 5 3 16 9 SE 1015,2 20 0 0,0
29.05.2020 22:00:00 20,3 13,3 15,1 19,0 16,3 4 2 10 6 SSE 1014,4 20 0 0,0
29.05.2020 21:00:00 20,7 14,6 18,8 19,0 16,3 5 3 8 4 WSW 1013,8 20 31 0,0
29.05.2020 20:00:00 26,1 11,8 22,7 18,8 16,3 5 3 13 7 NNE 1012,7 20 60 0,0
29.05.2020 19:00:00 27,0 12,2 26,6 18,8 16,3 7 4 19 10 NNE 1012,3 20 60 0,0
29.05.2020 18:00:00 27,5 10,7 31,7 18,6 16,3 6 4 16 9 NNE 1012,7 20 60 0,0
29.05.2020 17:00:00 27,0 11,1 34,4 18,5 16,3 9 5 19 10 NNW 1013,0 20 58 0,0
29.05.2020 16:00:00 27,5 11,1 38,1 18,4 16,3 9 5 18 10 ENE 1013,3 20 60 0,0
29.05.2020 15:00:00 27,1 10,7 40,6 18,3 16,3 8 4 21 11 NNW 1013,8 20 60 0,0
29.05.2020 14:00:00 26,5 8,5 42,2 18,3 16,3 10 5 23 12 N 1014,3 20 60 0,0
29.05.2020 13:00:00 26,4 12,5 39,4 18,3 16,3 5 3 19 10 NNW 1014,8 20 60 0,0
29.05.2020 12:00:00 25,2 10,3 32,5 18,3 16,2 4 2 22 12 N 1015,7 19 60 0,0
29.05.2020 11:00:00 24,9 13,4 24,7 18,3 16,2 3 2 8 4 NNE 1015,9 18 60 0,0
29.05.2020 10:00:00 23,1 14,4 18,9 18,4 16,3 0 0 7 4 N 1016,6 20 60 0,0
29.05.2020 09:00:00 18,9 13,3 14,4 18,5 16,3 0 0 6 3 N 1017,6 20 60 0,0
29.05.2020 08:00:00 14,7 12,2 9,2 18,6 16,3 0 0 4 2 N 1018,5 20 49 0,0
29.05.2020 07:00:00 11,3 10,5 8,3 18,7 16,3 0 0 8 4 N 1019,3 20 0 0,0
29.05.2020 06:00:00 11,1 10,3 8,4 18,7 16,2 4 2 9 5 W 1019,2 20 0 0,0
29.05.2020 05:00:00 12,1 10,2 9,2 18,8 16,3 3 2 22 12 SSW 1019,1 20 0 0,0
29.05.2020 04:00:00 13,0 10,4 9,2 18,9 16,3 3 2 17 9 SW 1019,5 20 0 0,0
29.05.2020 03:00:00 13,3 10,8 9,6 18,9 16,2 6 4 14 8 S 1019,6 20 0 0,0
29.05.2020 02:00:00 13,0 11,2 10,0 19,0 16,2 5 3 12 6 S 1020,4 20 0 0,0
29.05.2020 01:00:00 13,0 11,2 10,2 19,0 16,2 2 1 7 4 W 1021,1 20 0 0,0
29.05.2020 00:00:00 14,1 11,3 11,2 19,0 16,2 4 2 8 4 S 1021,2 20 0 0,0
28.05.2020 23:00:00 15,5 12,1 12,1 19,0 16,2 2 1 5 3 S 1021,2 20 0 0,0
28.05.2020 22:00:00 17,4 11,9 13,5 18,9 16,2 2 1 7 4 SE 1020,6 20 0 0,0
28.05.2020 21:00:00 20,1 12,8 17,4 18,9 16,2 5 3 10 5 W 1019,9 20 49 0,0
28.05.2020 20:00:00 25,5 9,7 22,1 18,8 16,2 4 2 15 8 NNE 1019,3 20 60 0,0
28.05.2020 19:00:00 26,1 9,9 25,7 18,7 16,2 7 4 17 9 ENE 1019,2 20 60 0,0
28.05.2020 18:00:00 26,5 10,6 31,1 18,5 16,2 8 4 21 11 NE 1019,6 20 60 0,0
28.05.2020 17:00:00 27,1 11,2 36,7 18,4 16,2 7 4 23 13 NNE 1019,8 20 60 0,0
28.05.2020 16:00:00 27,2 11,2 38,8 18,3 16,2 8 4 19 10 NNE 1020,3 20 60 0,0
28.05.2020 15:00:00 26,7 12,0 42,2 18,2 16,2 10 5 19 11 NNE 1021,0 20 60 0,0
28.05.2020 14:00:00 26,4 14,5 40,6 18,2 16,2 6 3 16 8 NNE 1021,4 20 60 0,0
28.05.2020 13:00:00 25,9 14,7 39,3 18,1 16,2 5 3 13 7 N 1022,1 19 60 0,0
28.05.2020 12:00:00 24,1 15,3 32,7 18,2 16,2 6 3 13 7 NW 1023,0 11 60 0,0
28.05.2020 11:00:00 22,4 14,8 24,5 18,2 16,1 7 4 14 7 N 1023,8 20 60 0,0
28.05.2020 10:00:00 21,3 15,6 18,8 18,3 16,1 2 1 8 5 W 1024,3 20 60 0,0
28.05.2020 09:00:00 18,0 14,3 14,8 18,4 16,2 0 0 6 3 N 1025,0 20 60 0,0
28.05.2020 08:00:00 14,7 13,7 9,5 18,4 16,1 2 1 4 2 WNW 1025,3 20 49 0,0
28.05.2020 07:00:00 11,2 10,7 8,6 18,5 16,1 0 0 4 2 N 1026,1 17 0 0,0
28.05.2020 06:00:00 11,5 10,7 9,0 18,6 16,1 0 0 6 4 N 1026,2 20 0 0,0
28.05.2020 05:00:00 12,4 11,6 9,5 18,7 16,1 3 1 15 8 W 1025,9 20 0 0,0
28.05.2020 04:00:00 14,8 12,3 10,4 18,7 16,1 10 5 23 13 SSE 1025,6 20 0 0,0
28.05.2020 03:00:00 13,4 12,6 10,3 18,8 16,1 6 3 10 6 S 1025,9 20 0 0,0
28.05.2020 02:00:00 12,9 11,8 10,7 18,8 16,1 5 3 8 5 W 1026,5 20 0 0,0

tt = Température de l'air
td = dewpoint
tt 5cm = Température de l'air 5cm
tt -20cm = Température de l'air -20cm
tt -100cm = Température de l'air -100cm
ff = Vitesse du vent
fx = gusts
dd = Direction du vent
ppp = reduced air pressure
vv = visibility
sd = Ensoleillement
rr = Quantités de précipitations

stations d'obs. à proximité